Tracking 19794 objects as of 21-Jul-2019
HD Live streaming from Space Station
objects crossing your sky now

FENGYUN 1C DEB

Track FENGYUN 1C DEB now!
10-day predictions


NORAD ID: 31032
Int'l Code: 1999-025BEA
Perigee: 815.0 km
Apogee: 1,049.2 km
Inclination: 99.3 °
Period: 103.5 minutes
Semi major axis: 7303 km
RCS: 0.0169 m2 (small)
Launch date: May 10, 1999
Source: People's Republic of China (PRC)
Launch site: Taiyaun Space Center, China (TSC)

Note: This is SATELLITE DEBRIS
aabbcc
Your satellite tracking list
Your tracking list is empty




NASA's NSSDC Master Catalog

Two Line Element Set (TLE):
1 31032U 99025BEA 19201.41522073 +.00000401 +00000-0 +31929-3 0  9993
2 31032 099.2690 149.2194 0160366 049.3820 078.1027 13.91052725624051
Source of the keplerian elements: AFSPC